Regional Weather Roundup
Issued by NWS

Home | Current Version | Previous Version | Text Only | Print | Product List | Glossary Off
Versions: 1 2 3 4 5 6 7 8 9 10 11 12 13 14 15 16 17 18 19 20 21 22 23 24 25 26 27 28 29 30 31 32 33 34 35 36 37 38 39 40 41 42 43 44 45 46 47 48 49 50

000
ASUS43 KIND 062009
RWRIN

WEATHER ROUNDUP FOR INDIANA
NATIONAL WEATHER SERVICE INDIANAPOLIS IN
300 PM EST FRI MAR 06 2015

NOTE: "FAIR" INDICATES FEW OR NO CLOUDS BELOW 12,000 FEET WITH NO
SIGNIFICANT WEATHER AND/OR OBSTRUCTIONS TO VISIBILITY.

* - STATION DOES NOT REPORT WEATHER SUCH AS PRECIPITATION OR FOG.

+ - STATION NOT QUALITY CONTROLLED BY THE NATIONAL WEATHER SERVICE.
    USE DATA WITH CAUTION...ESPECIALLY DEWPOINT AND RELATIVE
    HUMIDITY OBSERVATIONS.

INZ001>003-010>013-019-020-062100-
NORTHWEST INDIANA

CITY           SKY/WX    TMP DP  RH WIND       PRES   REMARKS
GARY /AIRPORT/ MOSUNNY   25   5  42 S12G29    30.27F WCI  14
KNOX *+          N/A     23  -8  25 SW17      30.31F WCI   9
LA PORTE +     MOSUNNY   22  10  59 S15G23    30.30F WCI   8
MICHIGAN CITY+ PTSUNNY   23   5  46 S13G26    30.27F WCI  11
MONTICELLO +   PTSUNNY   26   8  48 S15       30.33F WCI  13
RENSSELAER +   MOSUNNY   25  14  63 S14       30.31F WCI  13
VALPARAISO     CLOUDY    21   8  57 S17       30.28F WCI   7

$$

LMZ046-743>745-062100-
SOUTHERN LAKE MICHIGAN

STATION/POSITION TIME  TEMP WIND        PRES
                       AIR  DIR/SP/G
                 (UTC) (F)  (DEG/KT/KT) (MB)
MICHIGAN CITY    2000   20  160/ 16/ 21   N/A

$$

INZ004-005-014>016-021>024-062100-
NORTH CENTRAL INDIANA

CITY           SKY/WX    TMP DP  RH WIND       PRES   REMARKS
ELKHART        SUNNY     21   1  42 S12G18    30.31F WCI   9
GOSHEN         MOSUNNY   21   6  52 SW17      30.31F WCI   7
LOGANSPORT +   MOSUNNY   25  12  58 S17       30.34F WCI  11
PERU/GRISSOM   CLOUDY    24  12  60 S16       30.33F WCI  10
ROCHESTER +    SUNNY     27  10  50 S13       30.33F WCI  16
SOUTH BEND     PTSUNNY   23   7  50 SE12G23   30.28F WCI  12
WARSAW +       SUNNY     25   7  46 SW12G17   30.32F WCI  14

$$

INZ006>009-017-018-025>027-062100-
NORTHEAST INDIANA

CITY           SKY/WX    TMP DP  RH WIND       PRES   REMARKS
ANGOLA *+      SUNNY     21   3  45 SW14      30.30F WCI   8
AUBURN +       SUNNY     27   9  46 SW8       30.35F WCI  18
FORT WAYNE     MOSUNNY   22  10  60 SW16      30.36F WCI   8
HUNTINGTON +   SUNNY     24   5  44 S14       30.35F WCI  12

$$

INZ028-029-035-036-043>045-051>053-062100-
WEST CENTRAL INDIANA

CITY           SKY/WX    TMP DP  RH WIND       PRES   REMARKS
CRAWFORDSVL +  FAIR      24   4  40 S15       30.35F WCI  12
GREENCASTLE +  MOSUNNY   28   1  31 S14       30.38F WCI  17
LAFAYETTE      CLOUDY    25   9  50 S12G23    30.34F WCI  14
TERRE HAUTE    PTSUNNY   26   9  48 S17G23    30.40F WCI  13

$$

INZ030>032-037>040-046>048-054>057-064-065-062100-
CENTRAL INDIANA

CITY           SKY/WX    TMP DP  RH WIND       PRES   REMARKS
ANDERSON       SUNNY     25  10  54 S12G23    30.40F WCI  14
CP ATTERBURY + SUNNY     32  10  40 S13       30.41F WCI  22
COLUMBUS       SUNNY     27   7  43 S16       30.43F WCI  14
FRANKFORT +    SUNNY     27  13  56 S10G16    30.36F WCI  17
GREENWOOD *+   SUNNY     28   5  37 S12G18    30.40F WCI  18
INDIANAPOLIS   MOSUNNY   28   9  44 S13       30.36F WCI  17
-EAGLE CREEK   MOSUNNY   28   8  43 SW9       30.37F WCI  19
KOKOMO *+        N/A    N/A N/A N/A MISG        N/A
MARION +       SUNNY     23  11  59 S15       30.37F WCI  10
MT COMFORT *+  SUNNY     27   3  36 S13       30.38F WCI  16
SHELBYVILLE    SUNNY     26  12  55 S16       30.40F WCI  14
ZIONSVILLE +   MOSUNNY   28   6  38 S14G20    30.36F WCI  17

$$

INZ033-034-041-042-049-050-058-059-062100-
EAST CENTRAL INDIANA

CITY           SKY/WX    TMP DP  RH WIND       PRES   REMARKS
MUNCIE         SUNNY     24  10  55 SW12      30.38F WCI  13

$$

INZ060-061-067>069-081>083-085>088-062100-
SOUTHWEST INDIANA

CITY           SKY/WX    TMP DP  RH WIND       PRES   REMARKS
EVANSVILLE     SUNNY     26   9  48 S9        30.48F WCI  17
HUNTINGBURG *+ SUNNY     27  12  54 S10       30.47F WCI  17
WASHINGTON +   SUNNY     28   8  42 S12       30.44F WCI  18

$$

INZ062-063-066-070>080-084-089>092-062100-
SOUTH CENTRAL AND SOUTHEAST INDIANA

CITY           SKY/WX    TMP DP  RH WIND       PRES   REMARKS
BEDFORD +      SUNNY     30   7  37 S12       30.42F WCI  21
BLOOMINGTON    MOSUNNY   28   7  41 S10       30.40F WCI  19
NORTH VERNON + SUNNY     28   9  43 S9        30.44F WCI  20
SEYMOUR +      SUNNY     30  12  47 S12       30.44F WCI  21

$$



USA.gov is the U.S. government's official web portal to all federal, state and local government web resources and services.